[[{"header":{"parameterUnit":"m.s-1","parameterCategory":1,"la1":30.2991,"la2":30.254,"lo1":-89.0895,"lo2":-89.0444,"dy":0.0017,"dx":0.0017,"nx":28,"ny":28,"refTime":"2025-12-21T09:00:00:Z","depth":0,"parameterNumber":2,"parameterNumberName":"U-component_of_WINDS"},"data":[0,0,0,0,0,0,0,0,0,0,0,0,0,0,0,0,0,0,0,0,0,0,0,0,0,0,0,0,0,0,0,0,0,0,0,0,0,0,0,0,0,0,0,0,0,0,0,0,0,0,0,0,0,0,0,0,0,0,-2.3782,-2.3783,0,-2.3811,-2.3811,-2.3812,-2.3774,-2.3773,-2.3771,-2.377,-2.38,-2.3802,-2.3805,0,0,0,0,0,0,0,0,0,0,0,0,0,-2.3696,-2.3697,-2.3782,-2.3783,-2.3783,-2.3811,-2.3811,-2.3812,-2.3774,-2.3773,-2.3771,-2.3769,-2.38,-2.3802,-2.3805,0,0,0,0,0,0,0,0,0,0,0,0,0,-2.373,-2.3698,-2.3782,-2.3768,-2.3767,-2.3811,-2.3811,-2.3812,-2.3775,-2.3773,-2.377,-2.3769,-2.3799,-2.3802,-2.3805,-2.3865,0,0,-2.3815,-2.3816,0,0,0,0,0,0,0,0,-2.3728,-2.3733,-2.3769,-2.3769,-2.3768,-2.3787,-2.3792,-2.383,-2.3775,-2.3772,-2.377,-2.3768,-2.3798,-2.3801,-2.3811,-2.3867,-2.3868,-2.3815,-2.3817,-2.3818,-2.3819,0,0,0,0,0,0,0,-2.3726,-2.3732,-2.3794,-2.377,-2.3769,-2.376,-2.3763,-2.3799,-2.3796,-2.3772,-2.3769,-2.3773,-2.3797,-2.3808,-2.3811,-2.3869,-2.3815,-2.3818,-2.382,-2.3821,-2.3976,-2.3978,0,0,0,0,0,0,-2.3725,-2.373,-2.3793,-2.3795,-2.3742,-2.3763,-2.3766,-2.3783,-2.3795,-2.3795,-2.3775,-2.3771,-2.3803,-2.3808,-2.3812,-2.3883,-2.3818,-2.3821,-2.3823,-2.3974,-2.3977,-2.3979,0,0,0,0,0,0,-2.3723,-2.3731,-2.3792,-2.3761,-2.3769,-2.3767,-2.3786,-2.3784,-2.3795,-2.3797,-2.3797,-2.3786,-2.3802,-2.3808,-2.3852,-2.3884,-2.3822,-2.3825,-2.3971,-2.3975,-2.3978,-2.4026,0,0,0,0,0,0,-2.3721,-2.373,-2.3753,-2.3762,-2.377,-2.3831,-2.3788,-2.3786,-2.3801,-2.3796,-2.3808,-2.3808,-2.3801,-2.3848,-2.3856,-2.3887,-2.3828,-2.3968,-2.3973,-2.3977,-2.4022,-2.4031,-2.4039,0,0,0,0,0,-2.3718,-2.3766,-2.3754,-2.3762,-2.3798,-2.3833,-2.3838,-2.3828,-2.3803,-2.3826,-2.3828,-2.3808,-2.388,-2.3853,-2.3861,-2.3894,-2.3966,-2.3972,-2.3976,-2.4018,-2.4029,-2.4038,0,0,0,0,0,0,-2.376,-2.3766,-2.3754,-2.3806,-2.3819,-2.3827,-2.3855,-2.384,-2.386,-2.3855,-2.3842,-2.3845,-2.3893,-2.3898,-2.3868,-2.3953,-2.3919,-2.3926,-2.3948,-2.3958,-2.3967,-2.3964,-2.383,0,0,0,0,0,-2.3775,-2.3803,-2.3807,-2.3853,-2.386,-2.3857,-2.3871,-2.3863,-2.3876,-2.3881,-2.3886,-2.39,-2.3925,-2.3942,-2.3966,-2.4023,-2.4025,-2.405,-2.4058,-2.4065,-2.4071,-2.4101,-2.4112,-2.3996,-2.3996,-2.3996,0,0,-2.3807,-2.3814,-2.3832,-2.3861,-2.3871,-2.3899,-2.3861,-2.3893,-2.3915,-2.3886,-2.3928,-2.3933,-2.3947,-2.3998,-2.4021,-2.4004,-2.4104,-2.4072,-2.4077,-2.4079,-2.4108,-2.4119,-2.4128,-2.3999,-2.3999,-2.3998,0,0,-2.388,-2.3888,-2.3927,-2.3937,-2.3952,-2.3949,-2.3959,-2.3968,-2.397,-2.4012,-2.3992,-2.4017,-2.4061,-2.4073,-2.4084,-2.4163,-2.4145,-2.4171,-2.4214,-2.4244,-2.4253,-2.4261,-2.4288,-2.4298,-2.4177,-2.4177,-2.4177,0,-2.3918,-2.396,-2.3949,-2.3982,-2.3996,-2.3972,-2.4011,-2.4021,-2.4043,-2.4053,-2.4034,-2.4089,-2.4097,-2.4151,-2.417,-2.418,-2.4191,-2.4169,-2.4253,-2.4261,-2.4268,-2.4294,-2.4304,-2.418,-2.418,-2.4179,-2.4179,0,-2.4005,-2.4035,-2.4065,-2.4086,-2.4103,-2.4139,-2.4134,-2.4153,-2.4143,-2.4143,-2.4187,-2.4196,-2.4221,-2.4234,-2.4225,-2.4286,-2.4275,-2.4255,-2.4219,-2.4282,-2.4306,-2.4316,-2.4184,-2.4183,-2.4182,-2.4182,0,0,-2.4104,-2.4119,-2.413,-2.4139,-2.4154,-2.4177,-2.4213,-2.4237,-2.4253,-2.427,-2.4299,-2.4338,-2.4319,-2.4332,-2.4324,-2.4351,-2.4412,-2.4327,-2.4327,-2.4342,-2.4479,-2.4493,-2.4505,-2.4401,-2.4403,-2.4404,-2.4478,0,-2.4176,-2.4236,-2.4228,-2.4287,-2.4314,-2.4292,-2.4323,-2.4336,-2.4337,-2.4361,-2.4362,-2.439,-2.4363,-2.4371,-2.4397,-2.4399,-2.4439,-2.4394,-2.4428,-2.4429,-2.4423,-2.4518,-2.4533,-2.4601,-2.4487,-2.4489,-2.449,0,-2.4267,-2.4286,-2.4348,-2.4358,-2.4369,-2.4397,-2.4419,-2.4442,-2.4456,-2.4456,-2.4471,-2.4459,-2.4495,-2.4461,-2.451,-2.448,-2.4494,-2.4497,-2.45,-2.4501,-2.4462,-2.4521,-2.4623,-2.4633,-2.4505,-2.4504,-2.4503,0,-2.4331,-2.4373,-2.4415,-2.4424,-2.4437,-2.4458,-2.4464,-2.4477,-2.4492,-2.4512,-2.4521,-2.4545,-2.4558,-2.4577,-2.4572,-2.4547,-2.4623,-2.4588,-2.4623,-2.4623,-2.4638,-2.4637,-2.4743,-2.4649,-2.4649,-2.4649,-2.4649,0,-2.4411,-2.445,-2.4444,-2.4469,-2.4512,-2.4502,-2.4545,-2.4549,-2.456,-2.4587,-2.457,-2.4595,-2.4587,-2.4613,-2.4609,-2.465,-2.4657,-2.4657,-2.4655,-2.4657,-2.4657,-2.4665,-2.466,-2.4652,-2.4651,-2.4651,-2.465,0,-2.449,-2.4487,-2.4531,-2.4541,-2.4545,-2.4575,-2.4584,-2.4608,-2.4609,-2.4642,-2.465,-2.465,-2.4679,-2.4676,-2.4709,-2.4706,-2.4757,-2.4751,-2.4752,-2.475,-2.4784,-2.4781,-2.4898,-2.4912,-2.4811,-2.4812,-2.4813,0,-2.454,-2.4569,-2.4582,-2.4598,-2.4606,-2.4633,-2.4648,-2.4641,-2.4658,-2.4677,-2.4699,-2.4726,-2.4747,-2.4795,-2.4798,-2.4823,-2.4816,-2.4856,-2.482,-2.4821,-2.4815,-2.4813,-2.4816,-2.4862,-2.4863,-2.4864,-2.4865,0,-2.4629,-2.4627,-2.465,-2.4673,-2.4692,-2.471,-2.4726,-2.474,-2.4735,-2.4755,-2.4784,-2.48,-2.4833,-2.486,-2.4884,-2.4892,-2.4878,-2.4877,-2.4886,-2.4887,-2.4886,-2.4886,-2.477,-2.4873,-2.4873,-2.4872,-2.4872,-2.4871,-2.4694,-2.4719,-2.4732,-2.4758,-2.4769,-2.4785,-2.4808,-2.4812,-2.4836,-2.4861,-2.4856,-2.4889,-2.4903,-2.4934,-2.4944,-2.4969,-2.4955,-2.4969,-2.4972,-2.4975,-2.4978,-2.4884,-2.4974,-2.4974,-2.4974,-2.4973,-2.4973,0,-2.4782,-2.4789,-2.4813,-2.4836,-2.4857,-2.4843,-2.486,-2.4878,-2.4907,-2.4921,-2.4943,-2.4976,-2.5003,-2.5009,-2.5035,-2.5054,-2.5048,-2.5061,-2.5059,-2.5061,-2.499,-2.4979,-2.5065,-2.5065,-2.5065,-2.5065,-2.5065,-2.5065,-2.4829,-2.487,-2.4869,-2.4915,-2.4923,-2.4954,-2.4965,-2.498,-2.4991,-2.5029,-2.5051,-2.5055,-2.5066,-2.5093,-2.5117,-2.5118,-2.5128,-2.5143,-2.5141,-2.5075,-2.5066,-2.5057,-2.5046,-2.5145,-2.5145,-2.5209,-2.521,-2.5211]},{"header":{"parameterUnit":"m.s-1","parameterCategory":1,"la1":30.2991,"la2":30.254,"lo1":-89.0895,"lo2":-89.0444,"dy":0.0017,"dx":0.0017,"nx":28,"ny":28,"refTime":"2025-12-21T09:00:00:Z","depth":0,"parameterNumber":3,"parameterNumberName":"V-component_of_WINDS"},"data":[0,0,0,0,0,0,0,0,0,0,0,0,0,0,0,0,0,0,0,0,0,0,0,0,0,0,0,0,0,0,0,0,0,0,0,0,0,0,0,0,0,0,0,0,0,0,0,0,0,0,0,0,0,0,0,0,0,0,0.2325,0.2326,0,0.2401,0.2402,0.2403,0.241,0.2409,0.2408,0.2408,0.2489,0.2492,0.2495,0,0,0,0,0,0,0,0,0,0,0,0,0,0.219,0.2193,0.2325,0.2326,0.2327,0.2401,0.2402,0.2403,0.241,0.2409,0.2408,0.2407,0.2488,0.2492,0.2495,0,0,0,0,0,0,0,0,0,0,0,0,0,0.2256,0.2193,0.2324,0.2339,0.2341,0.2401,0.2402,0.2403,0.241,0.2409,0.2408,0.2407,0.2487,0.2491,0.2496,0.2547,0,0,0.2509,0.2511,0,0,0,0,0,0,0,0,0.2252,0.2261,0.2336,0.2338,0.234,0.2395,0.2385,0.2452,0.2411,0.2384,0.2407,0.2406,0.2459,0.2466,0.2483,0.2551,0.2555,0.2509,0.2512,0.2514,0.2515,0,0,0,0,0,0,0,0.2248,0.2258,0.2355,0.2337,0.234,0.2343,0.2351,0.2397,0.2428,0.2386,0.2387,0.2396,0.246,0.2478,0.2485,0.2556,0.2509,0.2513,0.2516,0.2518,0.2674,0.2675,0,0,0,0,0,0,0.224,0.2254,0.2353,0.2357,0.2292,0.2347,0.2356,0.2379,0.2427,0.2433,0.2397,0.2396,0.2471,0.248,0.2488,0.2553,0.2514,0.2518,0.2521,0.2673,0.2674,0.2676,0,0,0,0,0,0,0.2237,0.2248,0.2349,0.2306,0.2319,0.235,0.2376,0.2381,0.2399,0.2435,0.2441,0.241,0.2471,0.2481,0.2533,0.2556,0.252,0.2524,0.2671,0.2673,0.2675,0.2684,0,0,0,0,0,0,0.2233,0.2247,0.2266,0.2306,0.2321,0.2392,0.2377,0.2383,0.2406,0.2406,0.2449,0.2455,0.2471,0.2526,0.2537,0.2562,0.2528,0.2669,0.2672,0.2674,0.2682,0.2686,0.269,0,0,0,0,0,0.2228,0.2265,0.2267,0.2278,0.2345,0.2393,0.2402,0.2419,0.2408,0.2428,0.2452,0.2453,0.2552,0.2531,0.2544,0.257,0.2667,0.2671,0.2674,0.268,0.2685,0.269,0,0,0,0,0,0,0.2227,0.2271,0.2273,0.2324,0.2355,0.2394,0.242,0.2424,0.2459,0.2457,0.2478,0.2488,0.2539,0.256,0.2536,0.2624,0.2609,0.2615,0.2609,0.2614,0.2618,0.2613,0.2531,0,0,0,0,0,0.2233,0.2267,0.2304,0.2345,0.2361,0.2388,0.2409,0.242,0.2453,0.2467,0.2494,0.2527,0.2566,0.2591,0.2629,0.2685,0.2696,0.2709,0.2713,0.2716,0.2722,0.2756,0.2763,0.2687,0.2687,0.2687,0,0,0.2245,0.2273,0.2294,0.2346,0.2371,0.2408,0.2399,0.2437,0.2466,0.2473,0.2523,0.2545,0.2584,0.2638,0.2664,0.2657,0.2745,0.2721,0.2723,0.2727,0.276,0.2767,0.2774,0.2689,0.2689,0.2689,0,0,0.2287,0.231,0.2349,0.2375,0.2413,0.2431,0.244,0.248,0.2494,0.2545,0.2552,0.2587,0.2652,0.2681,0.2704,0.2759,0.2763,0.2771,0.2793,0.2826,0.2832,0.2837,0.2859,0.2867,0.2776,0.2776,0.2776,0,0.2297,0.2352,0.2368,0.2408,0.2432,0.244,0.248,0.2505,0.2554,0.2571,0.2563,0.2647,0.2674,0.2737,0.275,0.2768,0.2781,0.2766,0.2829,0.2835,0.284,0.2862,0.2869,0.2777,0.2777,0.2777,0.2776,0,0.2364,0.2403,0.2429,0.2476,0.2503,0.2543,0.2568,0.2594,0.2602,0.2622,0.2676,0.2708,0.2754,0.2769,0.2778,0.2834,0.2829,0.2825,0.281,0.2848,0.2869,0.2877,0.2778,0.2778,0.2777,0.2777,0,0,0.2406,0.2463,0.2473,0.2496,0.254,0.257,0.2612,0.2656,0.2679,0.2713,0.275,0.2807,0.2804,0.283,0.2842,0.2871,0.2916,0.2864,0.2865,0.2874,0.2983,0.2987,0.2996,0.2919,0.292,0.2921,0.298,0,0.2454,0.2527,0.2544,0.2607,0.2644,0.2653,0.269,0.2722,0.2742,0.2778,0.2801,0.2842,0.2833,0.285,0.2878,0.2904,0.2938,0.29,0.2955,0.2957,0.2946,0.3006,0.301,0.3064,0.2988,0.2989,0.299,0,0.2519,0.2555,0.2622,0.2663,0.268,0.2712,0.2755,0.2788,0.2826,0.2839,0.287,0.288,0.2926,0.2908,0.2974,0.2947,0.2971,0.2988,0.299,0.2997,0.2977,0.3016,0.3081,0.309,0.3003,0.3002,0.3001,0,0.2546,0.2611,0.2659,0.2678,0.2727,0.2751,0.2773,0.2809,0.2835,0.2874,0.2891,0.2935,0.2959,0.2993,0.3016,0.3001,0.308,0.3064,0.3094,0.3094,0.3111,0.311,0.3183,0.3124,0.3124,0.3124,0.3124,0,0.2598,0.2639,0.2672,0.2702,0.275,0.277,0.2817,0.2839,0.2872,0.2909,0.292,0.2954,0.2981,0.302,0.3038,0.3091,0.3102,0.3115,0.312,0.3115,0.3113,0.3131,0.3129,0.3126,0.3126,0.3125,0.3125,0,0.2635,0.2659,0.2713,0.2756,0.2768,0.2801,0.2839,0.287,0.2891,0.2937,0.2949,0.2983,0.3029,0.3055,0.3114,0.3126,0.3186,0.3188,0.3173,0.3175,0.3205,0.3202,0.3292,0.3306,0.3237,0.3238,0.3238,0,0.2668,0.2699,0.2746,0.2771,0.2793,0.2833,0.286,0.2882,0.291,0.2958,0.2984,0.3031,0.3069,0.3144,0.3175,0.322,0.3224,0.3253,0.3231,0.3227,0.3227,0.3226,0.323,0.3257,0.3258,0.3258,0.3259,0,0.2723,0.2734,0.2772,0.2815,0.2847,0.2882,0.2917,0.2937,0.2966,0.2997,0.3045,0.3075,0.3135,0.3183,0.3231,0.3256,0.3263,0.3265,0.3275,0.3271,0.3262,0.3269,0.3185,0.3263,0.3263,0.3262,0.3262,0.3262,0.276,0.279,0.2828,0.2871,0.29,0.2933,0.2965,0.299,0.303,0.308,0.3091,0.3142,0.3182,0.3248,0.3274,0.3316,0.3311,0.3324,0.3328,0.3332,0.3334,0.3254,0.3325,0.3324,0.3324,0.3324,0.3324,0,0.2818,0.2843,0.2882,0.2931,0.2966,0.2968,0.3008,0.3037,0.3081,0.3118,0.3156,0.3212,0.3259,0.3294,0.3343,0.337,0.3374,0.3382,0.3381,0.3387,0.3334,0.3322,0.3377,0.3377,0.3377,0.3377,0.3377,0.3377,0.2852,0.2904,0.2919,0.2986,0.3012,0.3061,0.3084,0.3115,0.3145,0.3207,0.3245,0.3268,0.3305,0.3356,0.34,0.341,0.3428,0.3435,0.3445,0.3396,0.339,0.3385,0.3373,0.3439,0.3439,0.3495,0.3495,0.3496]}]]